QPF
0.00 0.00 0.00 0.00 0.00 0.00 0.00 0.00 0.00 0.00 0.00 0.00 0.00 0.00 0.00 0.00 0.00 0.00 0.00 0.00 0.00 0.00 0.00 0.00 0.00 0.00 0.00 0.00 0.00 0.00 0.00 0.00 0.00 0.00 0.00 0.00 0.00 0.00 0.03 0.11 0.09 0.18 0.15 0.21 0.19
0.00 0.00 0.00 0.00 0.00 0.00 0.00 0.00 0.00 0.00 0.00 0.00 0.00 0.00 0.00 0.00 0.00 0.00 0.00 0.00 0.00 0.00 0.00 0.00 0.00 0.00 0.00 0.00 0.00 0.00 0.00 0.00 0.00 0.00 0.00 0.00 0.00 0.00 0.03 0.08 0.04 0.00 0.03 0.08 0.11
0.00 0.00 0.00 0.00 0.00 0.00 0.00 0.00 0.00 0.00 0.00 0.00 0.00 0.00 0.00 0.00 0.00 0.00 0.00 0.00 0.00 0.00 0.00 0.00 0.00 0.00 0.00 0.00 0.00 0.00 0.00 0.00 0.00 0.00 0.00 0.00 0.01 0.00 0.01 0.00 0.00 0.00 0.01 0.04 0.05
0.00 0.00 0.00 0.00 0.00 0.00 0.00 0.00 0.00 0.00 0.00 0.00 0.00 0.00 0.00 0.00 0.00 0.00 0.00 0.00 0.00 0.00 0.00 0.00 0.00 0.00 0.00 0.00 0.00 0.00 0.00 0.00 0.00 0.00 0.00 0.00 0.01 0.02 0.04 0.01 0.00 0.00 0.00 0.02 0.01
0.00 0.00 0.00 0.00 0.00 0.00 0.00 0.00 0.00 0.00 0.00 0.00 0.00 0.00 0.00 0.00 0.00 0.00 0.00 0.00 0.00 0.00 0.00 0.00 0.00 0.00 0.00 0.00 0.00 0.00 0.00 0.00 0.00 0.00 0.00 0.00 0.00 0.03 0.03 0.02 0.00 0.00 0.01 0.03 0.01
0.00 0.00 0.00 0.00 0.00 0.00 0.00 0.00 0.00 0.00 0.00 0.00 0.00 0.00 0.00 0.00 0.00 0.00 0.00 0.00 0.00 0.00 0.00 0.00 0.00 0.00 0.00 0.00 0.00 0.00 0.00 0.00 0.00 0.00 0.00 0.00 0.00 0.03 0.18 0.02 0.01 0.00 0.00 0.00 0.00
0.00 0.00 0.00 0.00 0.00 0.00 0.00 0.00 0.00 0.00 0.00 0.00 0.00 0.00 0.00 0.00 0.00 0.00 0.00 0.00 0.00 0.00 0.00 0.00 0.00 0.00 0.00 0.00 0.00 0.00 0.00 0.00 0.00 0.00 0.00 0.00 0.00 0.02 0.10 0.01 0.00 0.00 0.00 0.00 0.00
0.00 0.00 0.00 0.00 0.00 0.00 0.00 0.00 0.00 0.00 0.00 0.00 0.00 0.00 0.00 0.00 0.00 0.00 0.00 0.00 0.00 0.00 0.00 0.00 0.00 0.00 0.00 0.00 0.00 0.00 0.00 0.00 0.00 0.00 0.00 0.00 0.00 0.00 0.04 0.07 0.02 0.00 0.00 0.00 0.00
0.00 0.00 0.00 0.00 0.00 0.00 0.00 0.00 0.00 0.00 0.00 0.00 0.00 0.00 0.00 0.00 0.00 0.00 0.00 0.00 0.00 0.00 0.00 0.00 0.00 0.00 0.00 0.00 0.00 0.00 0.00 0.00 0.00 0.00 0.00 0.00 0.00 0.00 0.02 0.19 0.04 0.00 0.00 0.00 0.00
0.00 0.00 0.00 0.00 0.00 0.00 0.00 0.00 0.00 0.00 0.00 0.00 0.00 0.00 0.00 0.00 0.00 0.00 0.00 0.00 0.00 0.00 0.00 0.00 0.00 0.00 0.00 0.00 0.00 0.00 0.00 0.00 0.00 0.00 0.00 0.00 0.00 0.02 0.01 0.04 0.01 0.00 0.00 0.00 0.00
0.00 0.00 0.00 0.00 0.00 0.00 0.00 0.00 0.00 0.00 0.00 0.00 0.00 0.00 0.00 0.00 0.00 0.00 0.00 0.00 0.00 0.00 0.00 0.00 0.00 0.00 0.00 0.00 0.00 0.00 0.00 0.00 0.00 0.00 0.00 0.00 0.00 0.00 0.00 0.00 0.01 0.00 0.00 0.00 0.00
0.00 0.00 0.00 0.00 0.00 0.00 0.00 0.00 0.00 0.00 0.00 0.00 0.00 0.00 0.00 0.00 0.00 0.00 0.00 0.00 0.00 0.00 0.00 0.00 0.00 0.00 0.00 0.00 0.00 0.00 0.00 0.00 0.00 0.00 0.00 0.00 0.00 0.00 0.00 0.00 0.00 0.00 0.00 0.00 0.00
0.00 0.00 0.00 0.00 0.00 0.00 0.00 0.00 0.00 0.00 0.00 0.00 0.00 0.00 0.00 0.00 0.00 0.00 0.00 0.00 0.00 0.00 0.00 0.00 0.00 0.00 0.00 0.00 0.00 0.00 0.00 0.00 0.00 0.00 0.00 0.00 0.00 0.00 0.01 0.01 0.03 0.00 0.00 0.00 0.00
0.00 0.00 0.00 0.00 0.00 0.00 0.00 0.00 0.00 0.00 0.00 0.00 0.00 0.00 0.00 0.00 0.00 0.00 0.00 0.00 0.00 0.00 0.00 0.00 0.00 0.00 0.00 0.00 0.00 0.00 0.00 0.00 0.00 0.00 0.00 0.00 0.00 0.00 0.00 0.01 0.02 0.01 0.00 0.00 0.00
0.00 0.00 0.00 0.00 0.00 0.00 0.00 0.00 0.00 0.00 0.00 0.00 0.00 0.00 0.00 0.00 0.00 0.00 0.00 0.00 0.00 0.00 0.00 0.00 0.00 0.00 0.00 0.00 0.00 0.00 0.00 0.00 0.00 0.00 0.00 0.00 0.00 0.00 0.00 0.01 0.01 0.01 0.00 0.01 0.01
0.01 0.00 0.01 0.00 0.00 0.00 0.00 0.00 0.01 0.00 0.00 0.00 0.00 0.00 0.00 0.00 0.00 0.00 0.00 0.00 0.00 0.00 0.00 0.00 0.00 0.00 0.00 0.00 0.00 0.00 0.00 0.00 0.00 0.00 0.00 0.00 0.00 0.00 0.00 0.00 0.01 0.01 0.00 0.01 0.01
0.01 0.01 0.01 0.00 0.00 0.00 0.00 0.02 0.01 0.00 0.00 0.00 0.00 0.00 0.00 0.00 0.00 0.00 0.00 0.00 0.00 0.00 0.00 0.00 0.00 0.00 0.00 0.00 0.00 0.00 0.00 0.00 0.00 0.00 0.00 0.00 0.00 0.00 0.00 0.00 0.00 0.00 0.00 0.00 0.00
0.03 0.03 0.01 0.00 0.00 0.01 0.01 0.02 0.01 0.00 0.00 0.00 0.00 0.00 0.00 0.00 0.00 0.00 0.00 0.00 0.00 0.00 0.00 0.00 0.00 0.00 0.00 0.00 0.00 0.00 0.00 0.00 0.00 0.00 0.00 0.01 0.00 0.00 0.00 0.00 0.00 0.00 0.00 0.00 0.00
0.05 0.05 0.03 0.01 0.00 0.01 0.02 0.05 0.01 0.00 0.00 0.00 0.00 0.00 0.00 0.00 0.00 0.00 0.00 0.00 0.00 0.00 0.00 0.00 0.00 0.00 0.00 0.00 0.00 0.00 0.00 0.00 0.00 0.00 0.00 0.00 0.00 0.00 0.00 0.00 0.00 0.00 0.00 0.00 0.00
0.05 0.05 0.01 0.00 0.00 0.03 0.06 0.01 0.00 0.00 0.00 0.00 0.00 0.00 0.00 0.00 0.00 0.00 0.00 0.00 0.00 0.00 0.00 0.00 0.00 0.00 0.00 0.00 0.00 0.00 0.00 0.00 0.00 0.00 0.00 0.00 0.00 0.00 0.00 0.00 0.00 0.00 0.00 0.00 0.00
0.07 0.06 0.02 0.00 0.02 0.03 0.05 0.00 0.00 0.00 0.00 0.00 0.00 0.00 0.00 0.00 0.00 0.00 0.00 0.00 0.00 0.00 0.00 0.00 0.00 0.00 0.00 0.00 0.00 0.00 0.00 0.00 0.00 0.00 0.00 0.00 0.00 0.00 0.00 0.00 0.00 0.00 0.00 0.00 0.00
0.19 0.12 0.02 0.01 0.04 0.02 0.01 0.00 0.00 0.00 0.00 0.00 0.00 0.00 0.00 0.00 0.00 0.00 0.00 0.00 0.00 0.00 0.00 0.00 0.00 0.00 0.00 0.00 0.00 0.00 0.00 0.00 0.00 0.00 0.00 0.00 0.00 0.00 0.00 0.00 0.00 0.00 0.00 0.00 0.00
0.28 0.13 0.04 0.01 0.03 0.01 0.00 0.00 0.00 0.00 0.00 0.00 0.00 0.00 0.00 0.00 0.00 0.00 0.00 0.00 0.00 0.00 0.00 0.00 0.00 0.00 0.00 0.00 0.00 0.00 0.00 0.00 0.00 0.00 0.00 0.01 0.00 0.00 0.00 0.00 0.00 0.00 0.00 0.00 0.00
0.38 0.28 0.16 0.09 0.01 0.00 0.00 0.00 0.00 0.00 0.00 0.00 0.00 0.00 0.00 0.00 0.00 0.00 0.00 0.00 0.00 0.00 0.00 0.00 0.00 0.00 0.00 0.00 0.00 0.00 0.00 0.00 0.00 0.00 0.00 0.00 0.00 0.00 0.00 0.00 0.00 0.00 0.00 0.00 0.00
0.59 0.25 0.08 0.11 0.03 0.00 0.00 0.00 0.00 0.00 0.00 0.00 0.00 0.00 0.00 0.00 0.00 0.00 0.00 0.01 0.05 0.00 0.00 0.00 0.00 0.00 0.00 0.00 0.00 0.00 0.00 0.00 0.00 0.00 0.01 0.00 0.00 0.00 0.00 0.00 0.00 0.00 0.00 0.00 0.00
0.61 0.20 0.01 0.00 0.00 0.01 0.00 0.00 0.00 0.00 0.00 0.00 0.00 0.00 0.00 0.00 0.00 0.00 0.04 0.06 0.12 0.10 0.01 0.00 0.00 0.00 0.00 0.00 0.00 0.00 0.00 0.00 0.00 0.00 0.00 0.00 0.00 0.00 0.00 0.00 0.00 0.00 0.00 0.00 0.00
0.58 0.17 0.01 0.01 0.01 0.02 0.00 0.00 0.00 0.00 0.00 0.00 0.00 0.00 0.00 0.00 0.00 0.00 0.01 0.04 0.13 0.21 0.17 0.02 0.00 0.00 0.00 0.00 0.00 0.00 0.00 0.00 0.00 0.00 0.00 0.00 0.00 0.00 0.00 0.00 0.00 0.00 0.00 0.00 0.00
MSLP
1021.54 1021.25 1021.01 1020.61 1020.41 1020.11 1019.81 1019.41 1019.21 1018.73 1018.23 1017.83 1017.47 1016.92 1016.13 1015.47 1014.43 1013.46 1012.51 1010.43 1010.35 1010.30 1010.73 1010.61 1010.87 1010.46 1010.32 1010.30 1009.68 1009.45 1010.60 1010.58 1009.04 1007.96 1007.92 1007.75 1008.45 1009.91 1011.00 1011.94 1011.45 1011.71 1012.28 1013.20 1013.99
1021.41 1021.20 1020.97 1020.63 1020.40 1020.07 1019.80 1019.45 1019.13 1018.70 1018.22 1017.70 1017.38 1016.78 1016.00 1015.48 1014.29 1012.14 1009.79 1009.66 1009.77 1010.19 1010.52 1010.41 1010.28 1010.02 1010.16 1009.65 1009.52 1009.55 1009.73 1008.95 1007.64 1007.13 1007.27 1007.50 1008.05 1009.38 1011.00 1011.77 1012.54 1013.43 1013.88 1013.75 1013.90
1021.35 1021.07 1020.84 1020.61 1020.35 1020.12 1019.73 1019.42 1019.04 1018.61 1018.12 1017.72 1017.26 1016.58 1015.89 1015.63 1014.10 1010.26 1009.56 1009.61 1009.86 1010.08 1010.16 1010.25 1009.77 1009.72 1009.72 1009.14 1008.71 1008.46 1008.61 1007.66 1006.90 1006.51 1006.58 1007.49 1008.33 1009.37 1011.27 1012.22 1012.98 1013.42 1013.95 1014.03 1013.73
1021.17 1021.00 1020.70 1020.47 1020.16 1019.99 1019.68 1019.25 1018.97 1018.60 1018.11 1017.67 1017.16 1016.63 1015.71 1015.34 1012.86 1009.50 1009.46 1009.76 1009.92 1009.95 1010.22 1009.85 1009.43 1009.42 1009.23 1009.16 1008.07 1007.71 1007.26 1006.94 1006.43 1006.04 1006.25 1007.29 1008.67 1010.52 1011.46 1013.03 1013.01 1013.58 1013.62 1013.94 1014.01
1020.89 1020.72 1020.47 1020.26 1019.96 1019.76 1019.50 1018.98 1018.81 1018.51 1017.99 1017.65 1017.17 1016.74 1015.89 1014.71 1011.20 1009.41 1009.44 1009.74 1009.99 1009.98 1009.90 1009.74 1009.28 1008.96 1008.73 1008.34 1007.58 1006.93 1006.71 1006.51 1006.19 1005.99 1006.28 1007.28 1008.84 1010.62 1011.98 1013.18 1013.42 1013.47 1013.46 1013.82 1014.28
1020.58 1020.33 1020.10 1019.89 1019.74 1019.46 1019.20 1018.81 1018.48 1018.27 1017.85 1017.44 1017.21 1016.84 1016.17 1014.19 1009.50 1008.91 1009.28 1009.62 1009.60 1009.70 1009.39 1009.07 1008.56 1008.17 1008.10 1007.89 1007.74 1006.88 1006.58 1006.31 1006.25 1006.19 1006.37 1007.54 1009.43 1009.90 1011.39 1012.23 1012.68 1013.40 1013.68 1014.24 1014.49
1020.25 1020.04 1019.65 1019.45 1019.36 1019.20 1018.83 1018.41 1018.02 1017.87 1017.54 1017.22 1017.09 1016.80 1015.54 1012.17 1009.06 1009.15 1009.24 1009.16 1009.04 1009.05 1008.97 1008.13 1007.79 1008.00 1008.16 1008.16 1007.29 1007.12 1007.01 1006.45 1006.17 1006.07 1007.23 1007.61 1009.31 1010.68 1011.13 1011.96 1012.35 1012.95 1013.51 1013.99 1014.51
1019.98 1019.66 1019.43 1019.29 1019.09 1018.80 1018.42 1017.97 1017.45 1017.22 1017.09 1016.81 1016.74 1016.58 1013.79 1009.95 1009.07 1008.87 1008.55 1008.56 1008.31 1008.28 1008.36 1007.86 1007.65 1007.88 1008.43 1008.40 1007.91 1007.93 1007.35 1006.96 1005.96 1006.14 1007.29 1007.44 1009.45 1010.47 1010.69 1011.51 1012.78 1012.29 1012.64 1013.73 1014.18
1019.74 1019.55 1019.30 1019.12 1018.85 1018.46 1018.04 1017.37 1016.57 1016.23 1016.21 1016.12 1016.45 1015.74 1011.98 1008.74 1008.57 1007.69 1007.88 1007.73 1007.78 1007.77 1007.72 1007.61 1007.77 1008.29 1008.74 1009.04 1008.80 1007.86 1007.75 1006.89 1006.17 1005.83 1007.17 1007.93 1009.33 1009.56 1010.53 1010.93 1012.04 1012.41 1012.34 1013.41 1014.03
1019.38 1019.24 1019.14 1018.97 1018.57 1018.28 1017.81 1016.81 1014.75 1015.50 1015.36 1015.36 1015.10 1014.86 1010.71 1008.11 1007.01 1006.56 1006.72 1007.16 1007.46 1007.55 1007.81 1008.10 1008.41 1008.63 1008.85 1009.24 1008.77 1007.65 1007.21 1006.35 1005.92 1006.15 1007.24 1008.32 1009.31 1009.06 1009.58 1010.35 1010.72 1011.27 1011.61 1012.45 1013.49
1019.13 1019.11 1018.98 1018.75 1018.43 1018.12 1017.89 1016.60 1014.81 1015.26 1014.65 1013.20 1012.07 1010.86 1008.50 1007.25 1006.52 1006.24 1006.40 1006.95 1007.20 1007.58 1007.96 1008.21 1008.96 1008.63 1008.50 1008.18 1007.54 1007.01 1006.58 1006.16 1005.55 1005.44 1006.74 1007.58 1008.81 1008.60 1008.31 1009.90 1010.39 1010.13 1010.59 1011.52 1012.49
1018.79 1018.81 1018.83 1018.61 1018.39 1018.07 1018.28 1017.50 1015.14 1015.59 1013.67 1011.46 1010.71 1009.57 1008.55 1007.85 1007.51 1006.24 1005.94 1007.00 1007.08 1007.30 1007.93 1008.48 1007.79 1007.79 1007.53 1007.12 1006.82 1006.25 1005.95 1005.47 1005.05 1005.17 1005.84 1007.55 1008.46 1008.59 1008.59 1008.97 1009.03 1009.05 1009.80 1010.63 1011.79
1018.53 1018.65 1018.71 1018.63 1018.25 1018.03 1017.63 1016.68 1014.82 1014.85 1013.91 1009.88 1008.69 1007.44 1006.64 1006.87 1006.41 1006.09 1005.79 1006.23 1006.74 1007.18 1007.33 1007.52 1006.35 1006.67 1006.69 1006.23 1005.91 1005.29 1005.12 1005.03 1005.29 1005.37 1005.78 1006.71 1008.85 1009.14 1008.54 1008.56 1008.60 1008.37 1008.71 1009.59 1010.54
1018.15 1018.44 1018.60 1018.62 1018.60 1017.31 1016.76 1015.20 1014.64 1014.68 1013.59 1008.51 1005.83 1004.03 1004.56 1005.39 1005.29 1005.12 1005.12 1005.78 1006.36 1006.56 1006.73 1006.64 1005.88 1005.85 1005.62 1005.16 1005.07 1004.82 1004.32 1004.57 1005.02 1005.51 1006.24 1006.31 1007.92 1008.41 1007.85 1007.52 1007.63 1007.53 1008.00 1008.81 1009.76
1017.71 1018.04 1018.34 1018.56 1017.82 1016.94 1015.73 1015.21 1014.24 1013.84 1012.39 1005.66 1003.03 1001.67 1002.32 1003.50 1003.59 1003.98 1004.09 1005.18 1005.37 1005.87 1006.27 1005.23 1005.04 1004.91 1004.60 1004.15 1004.09 1004.28 1004.22 1004.65 1005.17 1005.92 1006.30 1006.37 1007.39 1006.34 1006.69 1006.71 1006.51 1006.61 1006.92 1007.55 1008.31
1017.21 1017.55 1017.98 1018.39 1018.01 1016.58 1016.01 1015.30 1014.55 1014.13 1009.70 1004.78 1002.09 1001.58 1002.34 1003.59 1003.32 1003.10 1003.81 1004.58 1004.93 1005.68 1005.42 1005.03 1004.39 1004.13 1003.72 1003.51 1003.56 1003.83 1004.28 1004.63 1005.42 1006.33 1007.03 1006.93 1007.06 1005.85 1005.78 1005.08 1005.10 1005.57 1005.95 1006.53 1006.96
1016.62 1017.01 1017.60 1017.69 1017.17 1016.33 1016.21 1015.75 1015.18 1011.87 1007.12 1004.49 1002.94 1002.31 1002.59 1003.17 1003.68 1003.71 1004.18 1004.41 1004.94 1005.26 1004.82 1004.92 1004.06 1003.43 1003.10 1003.18 1003.25 1003.70 1004.68 1005.84 1006.88 1007.55 1007.79 1007.24 1006.67 1005.34 1004.24 1003.39 1003.01 1003.60 1004.25 1004.97 1005.46
1015.95 1016.49 1016.97 1017.20 1016.91 1016.88 1016.69 1016.28 1013.86 1008.56 1006.62 1003.55 1003.48 1003.21 1002.76 1002.95 1003.33 1003.64 1004.04 1004.23 1004.39 1004.50 1004.49 1004.67 1003.82 1003.01 1002.34 1002.40 1002.93 1003.46 1004.42 1006.04 1007.32 1008.20 1008.16 1007.26 1006.41 1004.75 1004.15 1002.75 1002.26 1002.63 1002.70 1003.59 1004.70
1015.43 1016.24 1016.65 1016.65 1016.73 1016.98 1016.90 1015.13 1011.50 1008.77 1006.56 1005.50 1004.53 1004.59 1003.54 1002.86 1003.11 1003.57 1003.64 1003.92 1004.04 1003.89 1004.17 1003.85 1002.95 1002.20 1001.79 1001.99 1002.35 1003.04 1003.75 1004.62 1006.54 1008.05 1008.40 1007.82 1006.47 1004.53 1003.15 1002.82 1002.31 1002.45 1002.85 1003.32 1003.56
1015.08 1015.56 1015.60 1015.69 1016.39 1016.84 1016.15 1013.91 1010.09 1008.17 1007.28 1006.85 1006.04 1004.97 1004.15 1003.64 1003.62 1003.45 1003.57 1002.59 1003.37 1003.17 1003.48 1003.31 1003.07 1002.32 1001.65 1001.50 1001.65 1002.15 1003.30 1004.53 1006.01 1008.12 1008.61 1007.83 1006.65 1004.91 1003.57 1002.52 1002.09 1002.19 1002.53 1002.73 1002.75
1014.28 1014.51 1014.08 1015.00 1016.21 1016.51 1014.01 1010.87 1009.13 1008.94 1008.51 1008.00 1006.70 1006.07 1005.19 1004.55 1004.57 1004.17 1004.25 1002.65 1002.29 1002.62 1002.78 1003.34 1003.50 1002.57 1001.79 1000.96 1001.34 1001.93 1002.77 1004.05 1005.35 1007.08 1008.15 1007.78 1005.88 1003.75 1003.37 1002.72 1001.76 1001.63 1001.67 1001.93 1002.19
1012.88 1013.20 1013.41 1014.14 1015.28 1014.49 1011.68 1010.42 1009.93 1008.55 1008.34 1007.75 1007.15 1006.73 1006.32 1005.51 1005.00 1004.55 1004.12 1003.65 1003.08 1003.35 1002.69 1002.77 1003.11 1003.19 1001.89 1001.07 1000.71 1000.96 1002.10 1003.30 1004.80 1006.35 1006.86 1006.94 1005.66 1003.08 1002.46 1001.90 1001.35 1001.52 1001.43 1001.54 1001.80
1011.53 1012.41 1012.77 1012.76 1012.51 1011.74 1011.02 1010.00 1009.89 1009.51 1008.76 1008.20 1007.46 1006.98 1006.58 1006.28 1006.44 1005.00 1004.68 1004.12 1004.30 1004.91 1004.15 1002.69 1002.37 1002.88 1002.12 1001.11 1000.46 1000.43 1001.48 1002.23 1003.35 1004.63 1005.71 1006.04 1004.44 1003.11 1002.19 1002.11 1001.30 1001.31 1001.12 1001.39 1001.65
1010.69 1011.36 1011.61 1011.52 1010.19 1009.42 1009.36 1008.78 1009.51 1009.32 1008.88 1008.38 1007.56 1007.74 1007.05 1006.63 1005.99 1005.34 1004.59 1004.62 1004.74 1004.83 1004.58 1003.69 1001.91 1001.60 1000.90 1001.06 1000.95 1000.70 1000.91 1001.43 1002.41 1003.55 1004.21 1004.32 1003.83 1002.90 1002.19 1001.93 1001.61 1001.31 1001.43 1001.54 1001.34
1008.76 1008.75 1007.92 1008.12 1008.00 1008.97 1009.88 1008.72 1008.49 1008.58 1007.87 1007.50 1007.46 1006.96 1006.45 1006.99 1006.21 1005.82 1005.50 1005.36 1004.82 1005.19 1005.39 1004.83 1002.99 1001.81 1001.20 1001.32 1000.99 1000.69 1000.88 1001.08 1001.47 1001.92 1002.24 1002.55 1002.42 1002.03 1001.51 1001.12 1001.49 1001.13 1000.73 1000.99 1001.54
1006.95 1007.34 1007.28 1006.69 1008.08 1009.06 1008.95 1007.28 1006.60 1006.45 1007.12 1006.75 1006.57 1006.03 1006.93 1006.66 1005.74 1005.86 1005.78 1005.81 1006.20 1006.16 1006.96 1005.41 1004.32 1002.75 1001.72 1001.18 1000.88 1000.62 1000.40 1000.18 1000.38 1000.62 1000.79 1000.91 1000.83 1000.28 1000.16 1000.02 1000.48 1000.59 1000.67 1000.92 1001.10
1005.31 1006.05 1005.91 1005.75 1006.80 1007.82 1005.94 1004.07 1004.94 1007.32 1006.57 1006.09 1005.48 1006.30 1005.89 1004.71 1006.32 1005.90 1005.31 1005.52 1006.10 1006.94 1008.42 1008.22 1006.64 1004.03 1002.67 1001.96 1001.26 1000.39 999.26 999.79 999.48 999.56 999.62 999.84 999.71 999.49 999.24 999.41 999.32 999.75 1000.15 1000.51 1000.64
Thickness
5612 5616 5619 5625 5627 5630 5635 5640 5643 5648 5653 5656 5660 5665 5671 5677 5685 5694 5696 5714 5714 5712 5707 5707 5701 5700 5698 5688 5690 5689 5645 5636 5657 5670 5672 5689 5678 5666 5663 5648 5661 5658 5649 5639 5636
5604 5609 5612 5616 5620 5623 5627 5633 5636 5641 5646 5652 5655 5661 5667 5672 5682 5697 5717 5718 5716 5710 5704 5699 5694 5696 5686 5686 5682 5668 5644 5654 5683 5684 5678 5686 5683 5668 5659 5650 5643 5630 5626 5632 5633
5595 5600 5604 5608 5612 5615 5620 5626 5630 5635 5641 5645 5650 5657 5661 5665 5678 5710 5715 5714 5711 5708 5705 5700 5700 5695 5682 5688 5684 5676 5655 5678 5689 5693 5693 5681 5676 5676 5650 5638 5633 5628 5624 5625 5631
5587 5590 5595 5600 5604 5608 5613 5618 5622 5628 5634 5639 5643 5650 5657 5662 5669 5710 5712 5709 5706 5704 5699 5696 5695 5684 5678 5670 5687 5674 5684 5688 5693 5697 5698 5683 5676 5655 5647 5635 5640 5631 5629 5628 5630
5578 5582 5587 5591 5596 5601 5605 5612 5616 5620 5627 5631 5636 5642 5651 5660 5680 5707 5707 5704 5700 5698 5692 5689 5687 5684 5675 5680 5684 5683 5687 5691 5694 5698 5698 5687 5670 5656 5645 5638 5636 5635 5634 5631 5627
5571 5575 5580 5584 5588 5593 5599 5604 5610 5615 5620 5625 5628 5634 5644 5650 5696 5704 5701 5699 5698 5693 5692 5693 5691 5695 5688 5683 5676 5688 5688 5690 5692 5691 5699 5681 5661 5663 5654 5648 5643 5634 5629 5621 5622
5561 5567 5574 5578 5581 5585 5592 5598 5604 5609 5614 5619 5621 5627 5641 5662 5695 5698 5696 5696 5697 5695 5687 5698 5700 5691 5684 5673 5691 5686 5673 5683 5688 5690 5678 5684 5657 5647 5659 5650 5642 5635 5630 5626 5621
5551 5557 5564 5568 5573 5579 5586 5592 5598 5604 5609 5613 5616 5619 5647 5678 5690 5694 5697 5694 5698 5698 5693 5698 5700 5690 5680 5681 5678 5667 5671 5655 5687 5686 5681 5682 5650 5650 5656 5655 5635 5641 5639 5627 5623
5540 5546 5552 5558 5564 5571 5579 5588 5596 5602 5606 5610 5610 5617 5649 5683 5681 5695 5697 5691 5693 5694 5694 5698 5691 5676 5672 5654 5646 5659 5643 5656 5668 5692 5677 5673 5653 5665 5658 5659 5644 5638 5638 5630 5627
5533 5537 5543 5548 5556 5562 5569 5581 5600 5598 5602 5608 5612 5613 5650 5672 5687 5697 5699 5693 5686 5684 5680 5675 5666 5654 5653 5644 5627 5646 5653 5667 5668 5683 5674 5657 5652 5667 5667 5657 5657 5651 5647 5640 5631
5525 5529 5535 5541 5548 5554 5559 5571 5589 5590 5600 5616 5625 5637 5661 5676 5688 5686 5691 5683 5682 5674 5656 5663 5643 5637 5648 5656 5667 5667 5662 5665 5678 5691 5669 5659 5649 5664 5676 5656 5655 5660 5657 5647 5639
5519 5522 5525 5531 5537 5543 5545 5552 5574 5575 5592 5621 5627 5641 5652 5661 5655 5673 5686 5666 5665 5659 5657 5648 5648 5658 5668 5670 5668 5670 5661 5664 5682 5688 5683 5657 5650 5660 5665 5662 5664 5664 5657 5653 5645
5509 5512 5516 5521 5527 5532 5538 5550 5568 5572 5578 5624 5635 5645 5656 5653 5657 5658 5673 5668 5659 5652 5655 5645 5667 5671 5668 5668 5665 5671 5665 5668 5667 5676 5685 5673 5636 5644 5661 5663 5667 5669 5668 5662 5653
5497 5499 5502 5507 5513 5526 5531 5551 5559 5564 5563 5614 5644 5659 5663 5658 5648 5672 5676 5667 5654 5649 5655 5652 5673 5667 5667 5667 5669 5656 5682 5677 5673 5662 5639 5676 5628 5642 5653 5665 5667 5672 5669 5663 5658
5484 5487 5490 5493 5503 5512 5531 5537 5552 5562 5524 5631 5654 5679 5674 5658 5667 5663 5677 5659 5650 5652 5651 5657 5662 5661 5662 5672 5679 5666 5679 5674 5671 5655 5657 5660 5641 5660 5663 5658 5669 5670 5675 5671 5670
5472 5473 5475 5478 5483 5500 5510 5522 5536 5535 5555 5620 5650 5652 5652 5648 5655 5668 5661 5662 5662 5646 5653 5654 5674 5669 5670 5681 5682 5684 5674 5675 5669 5653 5617 5649 5646 5645 5655 5668 5672 5673 5678 5679 5679
5461 5462 5463 5468 5468 5486 5492 5502 5511 5523 5604 5617 5628 5638 5637 5637 5639 5643 5641 5638 5630 5623 5631 5646 5656 5672 5678 5665 5677 5671 5656 5622 5615 5606 5603 5648 5643 5651 5676 5688 5695 5689 5689 5687 5688
5450 5449 5450 5454 5456 5464 5471 5479 5495 5580 5589 5626 5620 5619 5617 5628 5631 5634 5630 5626 5637 5639 5629 5621 5622 5658 5679 5670 5662 5661 5655 5614 5608 5592 5621 5644 5632 5655 5678 5692 5701 5702 5702 5698 5686
5440 5439 5441 5445 5446 5449 5453 5462 5526 5561 5589 5588 5593 5582 5597 5617 5622 5623 5623 5624 5634 5641 5624 5624 5633 5672 5676 5678 5674 5660 5642 5665 5634 5628 5609 5619 5647 5668 5684 5683 5691 5691 5689 5686 5688
5432 5433 5440 5440 5438 5438 5443 5473 5527 5554 5562 5561 5559 5578 5583 5599 5606 5608 5613 5637 5630 5643 5645 5637 5622 5655 5669 5676 5674 5665 5672 5637 5631 5598 5594 5617 5628 5641 5666 5680 5688 5686 5684 5688 5693
5428 5430 5444 5436 5430 5425 5464 5498 5526 5529 5531 5528 5543 5557 5569 5578 5585 5592 5590 5629 5639 5639 5644 5636 5624 5633 5656 5654 5653 5653 5647 5648 5643 5622 5598 5595 5620 5666 5665 5672 5683 5688 5691 5692 5695
5429 5430 5437 5433 5426 5441 5478 5500 5515 5526 5528 5533 5537 5544 5552 5566 5570 5580 5589 5605 5620 5623 5628 5639 5624 5607 5631 5659 5670 5666 5655 5650 5609 5619 5624 5606 5621 5677 5677 5683 5691 5685 5692 5690 5695
5430 5425 5428 5433 5442 5456 5481 5496 5502 5506 5514 5522 5528 5536 5549 5555 5551 5571 5580 5596 5598 5590 5606 5633 5620 5600 5616 5643 5657 5654 5655 5659 5651 5632 5617 5598 5620 5664 5675 5672 5686 5684 5689 5685 5688
5423 5419 5424 5432 5462 5476 5482 5495 5489 5502 5506 5515 5526 5524 5534 5538 5552 5560 5577 5589 5588 5590 5591 5602 5624 5616 5610 5627 5640 5638 5647 5656 5648 5609 5619 5610 5635 5656 5664 5666 5673 5677 5679 5677 5682
5419 5424 5450 5454 5464 5466 5466 5490 5492 5489 5511 5515 5516 5525 5535 5526 5541 5548 5564 5569 5585 5582 5585 5587 5596 5622 5630 5634 5642 5642 5644 5647 5642 5643 5629 5638 5638 5654 5662 5666 5668 5671 5683 5680 5676
5410 5425 5441 5462 5454 5447 5460 5483 5500 5512 5505 5512 5514 5530 5523 5523 5540 5543 5554 5556 5554 5563 5561 5583 5585 5602 5607 5629 5637 5631 5639 5645 5647 5646 5647 5648 5643 5669 5675 5675 5661 5670 5673 5670 5672
5419 5423 5437 5452 5445 5437 5473 5507 5504 5488 5498 5509 5520 5514 5516 5540 5528 5536 5550 5552 5548 5549 5534 5545 5560 5590 5590 5611 5617 5598 5628 5635 5645 5653 5654 5630 5650 5671 5669 5667 5671 5667 5672 5670 5672